EW1114 Weather Reports


Display with metric or nautical units.
time (UTC)temp
F
wind
direction
speed
MPH
gust
MPH
rain 1hr
in
rain 24hr
in
rain mn
in
humidity
%
barometer
mb
20230131192328 83 279 3.0 7.0 0.00 0.00 0.00 65 1022.3
20230131191835 83 167 3.0 7.0 0.00 0.00 0.00 63 1022.3
20230131191312 83 198 3.0 7.0 0.00 0.00 0.00 64 1022.4
20230131190534 83 265 3.0 6.0 0.00 0.00 0.00 65 1022.5
20230131185805 83 249 2.0 8.0 0.00 0.00 0.00 66 1022.6
20230131185517 83 179 2.0 9.0 0.00 0.00 0.00 65 1022.7
20230131184738 83 267 3.0 9.0 0.00 0.00 0.00 65 1022.8
20230131184215 83 217 2.0 7.0 0.00 0.00 0.00 66 1022.9
20230131183717 83 207 2.0 8.0 0.00 0.00 0.00 66 1023.0
20230131183153 83 278 1.0 8.0 0.00 0.00 0.00 66 1023.1
20230131182145 83 189 2.0 9.0 0.00 0.00 0.00 68 1023.4
20230131181645 82 240 3.0 8.0 0.00 0.00 0.00 68 1023.4
20230131181124 82 185 3.0 8.0 0.00 0.00 0.00 68 1023.5
20230131180600 81 245 3.0 8.0 0.00 0.00 0.00 68 1023.6
20230131180040 82 229 2.0 8.0 0.00 0.00 0.00 68 1023.6
20230131175512 81 159 3.0 9.0 0.00 0.00 0.00 69 1023.7
20230131175209 81 244 3.0 9.0 0.00 0.00 0.00 70 1023.8
20230131174437 81 170 2.0 6.0 0.00 0.00 0.00 70 1023.9
20230131173929 81 174 3.0 6.0 0.00 0.00 0.00 70 1024.0
20230131173429 81 275 2.0 7.0 0.00 0.00 0.00 71 1024.1
20230131172900 81 173 1.0 7.0 0.00 0.00 0.00 71 1024.2
20230131172356 81 180 2.0 7.0 0.00 0.00 0.00 70 1024.4
20230131171858 81 188 2.0 7.0 0.00 0.00 0.00 71 1024.4
20230131171340 81 217 3.0 5.0 0.00 0.00 0.00 71 1024.5
20230131170840 81 279 3.0 6.0 0.00 0.00 0.00 72 1024.5
20230131170314 81 303 2.0 6.0 0.00 0.00 0.00 71 1024.6
20230131165745 81 279 3.0 7.0 0.00 0.00 0.00 72 1024.7
20230131165221 81 244 3.0 11.0 0.00 0.00 0.00 72 1024.8
20230131164656 81 214 3.0 9.0 0.00 0.00 0.00 71 1024.9
20230131164159 81 221 3.0 7.0 0.00 0.00 0.00 71 1025.0
20230131163919 81 190 3.0 9.0 0.00 0.00 0.00 71 1025.0
20230131163146 81 331 2.0 9.0 0.00 0.00 0.00 72 1025.4
20230131162647 80 239 3.0 7.0 0.00 0.00 0.00 73 1025.1
20230131162121 80 182 3.0 8.0 0.00 0.00 0.00 73 1025.2
20230131161822 80 170 3.0 8.0 0.00 0.00 0.00 74 1025.2
20230131161051 80 187 3.0 8.0 0.00 0.00 0.00 75 1025.2
20230131160521 80 212 4.0 10.0 0.00 0.00 0.00 75 1025.1
20230131160023 80 254 4.0 10.0 0.00 0.00 0.00 76 1025.2
20230131155448 80 177 3.0 8.0 0.00 0.00 0.00 76 1025.2
20230131155221 79 214 3.0 7.0 0.00 0.00 0.00 78 1025.3
20230131154426 79 196 3.0 9.0 0.00 0.00 0.00 78 1025.4
20230131153930 79 244 4.0 9.0 0.00 0.00 0.00 79 1025.4
20230131153403 78 189 3.0 10.0 0.00 0.00 0.00 79 1025.5
20230131153133 78 232 3.0 10.0 0.00 0.00 0.00 80 1025.4
20230131152338 77 196 4.0 7.0 0.00 0.00 0.00 80 1025.4
20230131151811 77 172 4.0 7.0 0.00 0.00 0.00 82 1025.4
20230131151238 76 180 3.0 7.0 0.00 0.00 0.00 83 1025.4
20230131151016 76 177 3.0 7.0 0.00 0.00 0.00 83 1025.4
20230131150223 76 169 3.0 9.0 0.00 0.00 0.00 85 1025.3
20230131145725 75 220 4.0 9.0 0.00 0.00 0.00 85 1025.3
20230131145456 75 182 4.0 9.0 0.00 0.00 0.00 86 1025.2
20230131144719 74 168 3.0 9.0 0.00 0.00 0.00 86 1025.2
20230131144216 74 229 3.0 9.0 0.00 0.00 0.00 88 1025.1
20230131143716 74 182 4.0 9.0 0.00 0.00 0.00 88 1025.1
20230131143153 73 213 3.0 6.0 0.00 0.00 0.00 89 1025.0
20230131142621 72 135 2.0 6.0 0.00 0.00 0.00 91 1024.9
20230131142353 72 155 2.0 6.0 0.00 0.00 0.00 92 1024.9
20230131141602 71 181 3.0 6.0 0.00 0.00 0.00 93 1024.9
20230131141054 70 135 3.0 7.0 0.00 0.00 0.00 94 1024.8
20230131140522 69 202 3.0 7.0 0.00 0.00 0.00 95 1024.7
20230131140023 69 215 2.0 6.0 0.00 0.00 0.00 96 1024.7
20230131135455 68 173 1.0 5.0 0.00 0.00 0.00 97 1024.6
20230131134930 67 180 0.0 4.0 0.00 0.00 0.00 97 1024.5
20230131134401 67 175 0.0 0.0 0.00 0.00 0.00 96 1024.5
20230131133857 66 175 0.0 0.0 0.00 0.00 0.00 96 1024.4
20230131133335 66 175 0.0 1.0 0.00 0.00 0.00 96 1024.4
20230131133104 66 175 0.0 1.0 0.00 0.00 0.00 96 1024.5
20230131132328 66 175 0.0 1.0 0.00 0.00 0.00 96 1024.4
20230131131758 66 175 0.0 0.0 0.00 0.00 0.00 96 1024.3
20230131131256 65 175 0.0 0.0 0.00 0.00 0.00 96 1024.3
20230131130755 65 175 0.0 2.0 0.00 0.00 0.00 96 1024.2
20230131130253 65 175 0.0 2.0 0.00 0.00 0.00 96 1024.1
20230131125722 65 175 0.0 1.0 0.00 0.00 0.00 96 1024.0
20230131125222 65 175 0.0 1.0 0.00 0.00 0.00 96 1024.0
20230131124720 64 175 0.0 1.0 0.00 0.00 0.00 96 1023.9
20230131124149 64 175 0.0 2.0 0.00 0.00 0.00 96 1023.7
20230131123654 64 175 0.0 1.0 0.00 0.00 0.00 96 1023.7
20230131123126 64 175 0.0 0.0 0.00 0.00 0.00 96 1023.7
20230131122623 64 175 0.0 1.0 0.00 0.00 0.00 96 1023.5
20230131122056 64 175 0.0 2.0 0.00 0.00 0.00 96 1023.5
20230131121547 64 175 0.0 2.0 0.00 0.00 0.00 96 1023.5
20230131121048 63 175 0.0 0.0 0.00 0.00 0.00 96 1023.5
20230131120528 63 175 0.0 0.0 0.00 0.00 0.00 96 1023.4
20230131120028 63 175 0.0 0.0 0.00 0.00 0.00 95 1023.4
20230131115506 63 175 0.0 0.0 0.00 0.00 0.00 95 1023.3
20230131115000 63 175 0.0 0.0 0.00 0.00 0.00 95 1023.3
20230131114436 63 175 0.0 0.0 0.00 0.00 0.00 95 1023.2
20230131113909 63 175 0.0 0.0 0.00 0.00 0.00 95 1023.1
20230131113348 63 175 0.0 0.0 0.00 0.00 0.00 95 1023.1
20230131112831 63 175 0.0 0.0 0.00 0.00 0.00 95 1023.1
20230131112311 63 175 0.0 0.0 0.00 0.00 0.00 95 1023.2
20230131111806 63 175 0.0 0.0 0.00 0.00 0.00 95 1023.0
20230131111320 63 175 0.0 0.0 0.00 0.00 0.00 95 1022.9
20230131110806 63 175 0.0 0.0 0.00 0.00 0.00 95 1022.9
20230131110254 63 175 0.0 0.0 0.00 0.00 0.00 95 1022.8
20230131110001 64 175 0.0 0.0 0.00 0.00 0.00 95 1022.8
20230131105233 64 175 0.0 0.0 0.00 0.00 0.00 95 1022.8
20230131104729 64 175 0.0 0.0 0.00 0.00 0.00 95 1022.9
20230131104226 64 175 0.0 0.0 0.00 0.00 0.00 95 1022.7
20230131103706 64 175 0.0 0.0 0.00 0.00 0.00 95 1022.7
20230131103151 64 175 0.0 0.0 0.00 0.00 0.00 94 1022.6
20230131102635 64 175 0.0 0.0 0.00 0.00 0.00 94 1022.6
20230131102136 64 175 0.0 0.0 0.00 0.00 0.00 94 1022.6
20230131101629 64 175 0.0 0.0 0.00 0.00 0.00 94 1022.5
20230131101128 64 175 0.0 0.0 0.00 0.00 0.00 94 1022.6
20230131100619 64 175 0.0 0.0 0.00 0.00 0.00 94 1022.6
20230131100317 64 175 0.0 0.0 0.00 0.00 0.00 94 1022.5
20230131095815 65 175 0.0 0.0 0.00 0.00 0.00 94 1022.6
20230131095311 65 175 0.0 0.0 0.00 0.00 0.00 94 1022.5
20230131094518 65 175 0.0 0.0 0.00 0.00 0.00 94 1022.4
20230131094241 65 175 0.0 0.0 0.00 0.00 0.00 94 1022.4
20230131093510 65 175 0.0 0.0 0.00 0.00 0.00 94 1022.4
20230131092946 65 175 0.0 0.0 0.00 0.00 0.00 94 1022.3
20230131092449 65 175 0.0 0.0 0.00 0.00 0.00 94 1022.4
20230131091925 65 175 0.0 0.0 0.00 0.00 0.00 94 1022.4
20230131091426 65 175 0.0 0.0 0.00 0.00 0.00 94 1022.4
20230131090903 65 175 0.0 0.0 0.00 0.00 0.00 94 1022.3
20230131090404 66 175 0.0 0.0 0.00 0.00 0.00 93 1022.3
20230131090111 66 175 0.0 0.0 0.00 0.00 0.00 94 1022.3
20230131085312 66 175 0.0 0.0 0.00 0.00 0.00 93 1022.3
20230131084220 67 175 0.0 0.0 0.00 0.00 0.00 93 1022.3
20230131083722 67 175 0.0 0.0 0.00 0.00 0.00 93 1022.3
20230131083154 67 175 0.0 0.0 0.00 0.00 0.00 93 1022.4
20230131082630 67 175 0.0 0.0 0.00 0.00 0.00 93 1022.4
20230131082108 67 175 0.0 0.0 0.00 0.00 0.00 93 1022.4
20230131081611 67 175 0.0 0.0 0.00 0.00 0.00 93 1022.4
20230131081105 67 175 0.0 0.0 0.00 0.00 0.00 93 1022.4
20230131080609 68 175 0.0 0.0 0.00 0.00 0.00 93 1022.4
20230131080102 68 175 0.0 0.0 0.00 0.00 0.00 93 1022.4
20230131075607 68 175 0.0 1.0 0.00 0.00 0.00 93 1022.4
20230131075310 68 175 1.0 1.0 0.00 0.00 0.00 93 1022.5
20230131074538 68 175 0.0 1.0 0.00 0.00 0.00 93 1022.5
20230131074012 68 175 0.0 1.0 0.00 0.00 0.00 93 1022.5
20230131073443 68 175 0.0 1.0 0.00 0.00 0.00 93 1022.7
20230131073204 69 175 0.0 2.0 0.00 0.00 0.00 93 1022.6
20230131072427 69 175 1.0 2.0 0.00 0.00 0.00 93 1022.7
20230131071928 69 175 1.0 2.0 0.00 0.00 0.00 93 1022.7
20230131071430 69 175 1.0 2.0 0.00 0.00 0.00 93 1022.7
20230131070857 69 175 0.0 1.0 0.00 0.00 0.00 93 1022.7
20230131070353 69 175 0.0 1.0 0.00 0.00 0.00 93 1022.7
20230131065831 69 175 0.0 1.0 0.00 0.00 0.00 93 1022.7
20230131065558 69 175 0.0 1.0 0.00 0.00 0.00 93 1022.8
20230131064257 69 175 0.0 3.0 0.00 0.00 0.00 93 1022.8
20230131063727 69 175 0.0 3.0 0.00 0.00 0.00 92 1022.9
20230131063238 69 161 0.0 1.0 0.00 0.00 0.00 92 1022.8
20230131062731 69 161 0.0 1.0 0.00 0.00 0.00 92 1022.9
20230131062213 69 161 0.0 1.0 0.00 0.00 0.00 92 1022.9
20230131061717 70 161 0.0 1.0 0.00 0.00 0.00 91 1022.8
20230131061418 70 161 0.0 1.0 0.00 0.00 0.00 92 1022.8
20230131060625 70 161 0.0 1.0 0.00 0.00 0.00 92 1022.8
20230131060121 70 161 0.0 2.0 0.00 0.00 0.00 92 1022.9
20230131055359 71 161 0.0 1.0 0.00 0.00 0.00 92 1023.0
20230131054556 71 161 0.0 1.0 0.00 0.00 0.00 92 1023.0
20230131054034 71 161 0.0 1.0 0.00 0.00 0.00 91 1023.1
20230131053504 71 161 0.0 2.0 0.00 0.00 0.00 92 1023.1
20230131052942 71 161 0.0 2.0 0.00 0.00 0.00 92 1023.1
20230131052410 71 161 0.0 2.0 0.00 0.00 0.00 91 1023.2
20230131051908 71 161 1.0 3.0 0.00 0.00 0.00 91 1023.2
20230131051341 71 161 1.0 3.0 0.00 0.00 0.00 92 1023.1
20230131050839 71 184 0.0 2.0 0.00 0.00 0.00 92 1023.2
20230131050335 71 179 0.0 2.0 0.00 0.00 0.00 92 1023.3
20230131045809 71 179 1.0 2.0 0.00 0.00 0.00 92 1023.3
20230131045239 71 186 0.0 2.0 0.00 0.00 0.00 91 1023.4
20230131044739 71 186 0.0 1.0 0.00 0.00 0.00 91 1023.4
20230131044211 72 186 0.0 1.0 0.00 0.00 0.00 91 1023.5
20230131043641 72 186 0.0 1.0 0.00 0.00 0.00 91 1023.4
20230131043143 72 186 0.0 1.0 0.00 0.00 0.00 91 1023.5
20230131042616 72 186 0.0 1.0 0.00 0.00 0.00 91 1023.6
20230131042319 72 186 0.0 1.0 0.00 0.00 0.00 90 1023.6
20230131041547 72 186 0.0 1.0 0.00 0.00 0.00 90 1023.7
20230131040518 72 186 1.0 3.0 0.00 0.00 0.00 90 1023.7
20230131035944 72 192 1.0 4.0 0.00 0.00 0.00 91 1023.8
20230131035715 72 192 1.0 4.0 0.00 0.00 0.00 91 1023.7
20230131034916 72 208 1.0 3.0 0.00 0.00 0.00 91 1023.7
20230131034414 72 184 0.0 2.0 0.00 0.00 0.00 91 1023.8
20230131033844 72 184 0.0 3.0 0.00 0.00 0.00 91 1023.8
20230131033342 71 184 1.0 3.0 0.00 0.00 0.00 91 1023.7
20230131032820 71 236 0.0 2.0 0.00 0.00 0.00 90 1023.8
20230131032246 71 349 0.0 1.0 0.00 0.00 0.00 90 1023.7
20230131031747 71 349 1.0 2.0 0.00 0.00 0.00 90 1023.6
20230131031217 72 349 0.0 2.0 0.00 0.00 0.00 90 1023.6
20230131030429 72 349 0.0 1.0 0.00 0.00 0.00 90 1023.6
20230131025655 72 349 0.0 1.0 0.00 0.00 0.00 90 1023.6
20230131025132 72 349 0.0 1.0 0.00 0.00 0.00 90 1023.6
20230131024608 72 349 0.0 0.0 0.00 0.00 0.00 89 1023.6
20230131024105 72 349 0.0 1.0 0.00 0.00 0.00 89 1023.6
20230131023604 72 349 0.0 1.0 0.00 0.00 0.00 89 1023.6
20230131023033 72 349 0.0 1.0 0.00 0.00 0.00 89 1023.6
20230131022533 72 107 0.0 1.0 0.00 0.00 0.00 88 1023.6
20230131022003 72 107 0.0 0.0 0.00 0.00 0.00 88 1023.5
20230131021457 72 107 0.0 1.0 0.00 0.00 0.00 88 1023.4
20230131021228 72 107 0.0 1.0 0.00 0.00 0.00 88 1023.3
20230131020434 72 107 0.0 1.0 0.00 0.00 0.00 87 1023.4
20230131015904 72 107 0.0 0.0 0.00 0.00 0.00 87 1023.2
20230131015336 72 107 0.0 0.0 0.00 0.00 0.00 87 1023.3
20230131014834 72 107 0.0 1.0 0.00 0.00 0.00 87 1023.3
20230131014310 72 107 0.0 2.0 0.00 0.00 0.00 87 1023.3
20230131013742 72 107 1.0 3.0 0.00 0.00 0.00 86 1023.3
20230131013239 72 107 1.0 3.0 0.00 0.00 0.00 87 1023.3
20230131012709 72 253 0.0 1.0 0.00 0.00 0.00 85 1023.1
20230131012206 72 253 0.0 1.0 0.00 0.00 0.00 85 1023.1
20230131011644 72 253 0.0 1.0 0.00 0.00 0.00 85 1023.0
20230131011117 72 253 0.0 1.0 0.00 0.00 0.00 85 1023.0
20230131010555 73 253 0.0 1.0 0.00 0.00 0.00 85 1023.0
20230131010059 73 253 0.0 0.0 0.00 0.00 0.00 83 1022.9
20230131005827 73 253 0.0 0.0 0.00 0.00 0.00 83 1023.0
20230131005330 73 253 0.0 0.0 0.00 0.00 0.00 83 1022.9
20230131004526 73 253 0.0 0.0 0.00 0.00 0.00 82 1022.9
20230131004027 74 253 0.0 1.0 0.00 0.00 0.00 82 1022.9
20230131003503 74 253 0.0 1.0 0.00 0.00 0.00 82 1022.8
20230131003010 74 253 0.0 1.0 0.00 0.00 0.00 82 1022.9
20230131002504 75 253 0.0 0.0 0.00 0.00 0.00 81 1022.9
20230131002001 75 253 0.0 1.0 0.00 0.00 0.00 82 1022.9
20230131001502 75 253 0.0 1.0 0.00 0.00 0.00 81 1022.8
20230131001004 75 253 0.0 0.0 0.00 0.00 0.00 80 1022.8
20230131000438 76 253 0.0 0.0 0.00 0.00 0.00 78 1022.8
20230130235921 76 253 0.0 1.0 0.00 0.00 0.00 77 1022.6
20230130235403 76 253 0.0 1.0 0.00 0.00 0.00 77 1022.5
20230130234905 77 253 0.0 1.0 0.00 0.00 0.00 77 1022.5
20230130234342 77 253 0.0 0.0 0.00 0.00 0.00 75 1022.5
20230130234112 78 253 0.0 0.0 0.00 0.00 0.00 74 1022.4
20230130233323 78 253 0.0 0.0 0.00 0.00 0.00 75 1022.4
20230130232824 79 253 0.0 1.0 0.00 0.00 0.00 74 1022.3
20230130232329 79 253 0.0 1.0 0.00 0.00 0.00 75 1022.3
20230130231822 80 253 0.0 0.0 0.00 0.00 0.00 73 1022.3
20230130231323 80 253 0.0 0.0 0.00 0.00 0.00 71 1022.2
20230130230808 81 253 0.0 1.0 0.00 0.00 0.00 70 1022.2
20230130230301 81 253 0.0 0.0 0.00 0.00 0.00 70 1022.1
20230130225242 82 253 0.0 1.0 0.00 0.00 0.00 68 1022.1
20230130224744 82 253 0.0 1.0 0.00 0.00 0.00 67 1022.1
20230130224215 82 253 0.0 3.0 0.00 0.00 0.00 67 1022.1
20230130223701 82 256 0.0 3.0 0.00 0.00 0.00 66 1022.2
20230130223136 82 257 1.0 3.0 0.00 0.00 0.00 66 1022.1
20230130222907 83 250 1.0 3.0 0.00 0.00 0.00 66 1022.1
20230130222116 83 231 1.0 3.0 0.00 0.00 0.00 66 1022.0
20230130221555 83 220 1.0 3.0 0.00 0.00 0.00 66 1022.0
20230130221036 83 231 1.0 3.0 0.00 0.00 0.00 66 1021.9
20230130220525 83 224 1.0 3.0 0.00 0.00 0.00 66 1021.8
20230130220020 83 225 1.0 3.0 0.00 0.00 0.00 65 1021.9
20230130215509 83 245 1.0 4.0 0.00 0.00 0.00 66 1021.9
20230130215008 83 252 1.0 4.0 0.00 0.00 0.00 66 1021.8
20230130214508 83 263 1.0 4.0 0.00 0.00 0.00 66 1021.8
20230130214229 83 173 1.0 4.0 0.00 0.00 0.00 65 1021.7
20230130213709 83 259 1.0 4.0 0.00 0.00 0.00 65 1021.7
20230130212905 84 271 1.0 4.0 0.00 0.00 0.00 66 1021.6
20230130212410 83 295 1.0 4.0 0.00 0.00 0.00 66 1021.6
20230130211842 83 236 1.0 3.0 0.00 0.00 0.00 67 1021.6
20230130211329 83 315 1.0 4.0 0.00 0.00 0.00 67 1021.5
20230130210829 83 313 3.0 8.0 0.00 0.00 0.00 67 1021.4
20230130210330 83 282 3.0 8.0 0.00 0.00 0.00 67 1021.5
20230130205802 83 317 2.0 5.0 0.00 0.00 0.00 68 1021.4
20230130205236 83 338 3.0 5.0 0.00 0.00 0.00 68 1021.4
20230130204735 83 329 3.0 5.0 0.00 0.00 0.00 66 1021.3
20230130204228 84 288 2.0 6.0 0.00 0.00 0.00 67 1021.3
20230130203658 83 330 1.0 6.0 0.00 0.00 0.00 67 1021.3
20230130203157 83 246 1.0 3.0 0.00 0.00 0.00 67 1021.3
20230130202659 83 323 1.0 3.0 0.00 0.00 0.00 66 1021.3
20230130202126 84 5 1.0 4.0 0.00 0.00 0.00 66 1021.3
20230130201607 84 302 1.0 4.0 0.00 0.00 0.00 65 1021.3
20230130201316 84 311 1.0 3.0 0.00 0.00 0.00 66 1021.3
20230130200521 84 281 2.0 6.0 0.00 0.00 0.00 65 1021.4
20230130195947 85 261 3.0 7.0 0.00 0.00 0.00 65 1021.4
20230130195425 85 234 2.0 7.0 0.00 0.00 0.00 65 1021.6
20230130194925 84 199 2.0 8.0 0.00 0.00 0.00 67 1021.4
20230130194423 84 323 3.0 8.0 0.00 0.00 0.00 68 1021.4
20230130193920 83 226 2.0 6.0 0.00 0.00 0.00 68 1021.5
20230130193351 83 290 2.0 6.0 0.00 0.00 0.00 68 1021.6
20230130192850 83 334 2.0 7.0 0.00 0.00 0.00 68 1021.7